User: anonymous   Login
Location: Ferintosh
(52.7647°N, 112.9692°W)
Time: 14:23:28
(UTC+00:00)
Language:

Courier 1B Rocket - Orbit

View from above orbital plane
View from above orbital plane
View from above satellite
View from above satellite

Ground track
Ground track

The orbit data is extracted from the following two-line orbital elements,

1    59U 60013B   24139.10725988  .00000212  00000-0  16833-3 0  9992
2    59  28.2488  68.8841 0189010  54.7136 307.0934 13.53073026141011
Epoch (UTC): 18 May 2024 02:34:27
Eccentricity: 0.0189010
inclination: 28.2488°
perigee height: 920 km
apogee height: 1201 km
right ascension of ascending node: 68.8841°
argument of perigee: 54.7136°
revolutions per day: 13.53073026
mean anomaly at epoch: 307.0934°
orbit number at epoch: 14101

The dashed part of the orbit path shows where the satellite is in the earth's shadow,  

DLR